When you browse on this site, cookies collect data to enhance your experience and personalize the content and advertising you see.
Visit our Privacy Policy to learn more. By continuing to use the site, you agree to this use of cookies and data.
  • In Austria
  • List of Countries
  • For 7 days
  • Water Temperature
  • Weather Map
  • News
  • Weather Widgets
  • user-avatar
    Login

    Hourly Weather Cabimas

    Today, 25 January, Saturday

    Time Temperature Precipitation Wind Pressure Humidity
    00:00 +27°C° 0 mm 5 mps 760 mmHg 75%
    01:00 +27°C° 0 mm 5 mps 759 mmHg 76%
    02:00 +26°C° 0 mm 5 mps 759 mmHg 78%
    03:00 +26°C° 0 mm 5 mps 759 mmHg 80%
    04:00 +26°C° 0 mm 4 mps 759 mmHg 82%
    05:00 +26°C° 0 mm 4 mps 759 mmHg 81%
    06:00 +26°C° 0 mm 4 mps 760 mmHg 80%
    07:00 +26°C° 0 mm 4 mps 760 mmHg 79%
    08:00 +29°C° 0 mm 3 mps 760 mmHg 69%
    09:00 +33°C° 0 mm 3 mps 761 mmHg 59%
    10:00 +36°C° 0 mm 2 mps 761 mmHg 48%
    11:00 +36°C° 0 mm 2 mps 760 mmHg 47%
    12:00 +36°C° 0 mm 3 mps 759 mmHg 47%
    13:00 +36°C° 0 mm 3 mps 758 mmHg 46%
    14:00 +36°C° 0 mm 4 mps 758 mmHg 47%
    15:00 +35°C° 0 mm 5 mps 757 mmHg 48%
    16:00 +34°C° 0 mm 6 mps 757 mmHg 50%
    17:00 +33°C° 0 mm 6 mps 757 mmHg 57%
    18:00 +30°C° 0 mm 6 mps 758 mmHg 63%
    19:00 +28°C° 0 mm 6 mps 758 mmHg 70%
    20:00 +28°C° 0 mm 5 mps 759 mmHg 71%
    21:00 +27°C° 0 mm 5 mps 759 mmHg 72%
    22:00 +27°C° 0 mm 5 mps 760 mmHg 73%
    23:00 +27°C° 0 mm 5 mps 759 mmHg 76%

    Tomorrow, 26 January, Sunday

    Time Temperature Precipitation Wind Pressure Humidity
    00:00 +26°C° 0 mm 5 mps 759 mmHg 79%
    01:00 +26°C° 0 mm 5 mps 759 mmHg 83%
    02:00 +26°C° 0 mm 5 mps 759 mmHg 83%
    03:00 +26°C° 0 mm 5 mps 758 mmHg 83%
    04:00 +25°C° 0 mm 5 mps 758 mmHg 83%
    05:00 +26°C° 0 mm 5 mps 759 mmHg 81%
    06:00 +26°C° 0 mm 5 mps 759 mmHg 79%
    07:00 +26°C° 0 mm 5 mps 760 mmHg 77%
    08:00 +28°C° 0 mm 4 mps 760 mmHg 67%
    09:00 +31°C° 0 mm 3 mps 760 mmHg 58%
    10:00 +35°C° 0 mm 3 mps 760 mmHg 48%
    11:00 +35°C° 0 mm 3 mps 760 mmHg 46%
    12:00 +36°C° 0 mm 3 mps 759 mmHg 43%
    13:00 +37°C° 0 mm 4 mps 758 mmHg 40%
    14:00 +36°C° 0 mm 4 mps 758 mmHg 41%
    15:00 +36°C° 0 mm 4 mps 757 mmHg 43%
    16:00 +35°C° 0 mm 5 mps 757 mmHg 44%
    17:00 +33°C° 0 mm 5 mps 757 mmHg 52%
    18:00 +30°C° 0 mm 5 mps 758 mmHg 61%
    19:00 +28°C° 0 mm 5 mps 758 mmHg 70%
    20:00 +28°C° 0 mm 5 mps 759 mmHg 74%
    21:00 +27°C° 0 mm 5 mps 759 mmHg 79%
    22:00 +27°C° 0 mm 5 mps 760 mmHg 83%
    23:00 +27°C° 0 mm 5 mps 760 mmHg 83%

    Day after tomorrow, 27 January, Monday

    Time Temperature Precipitation Wind Pressure Humidity
    00:00 +27°C° 0 mm 5 mps 759 mmHg 84%
    01:00 +26°C° 0 mm 5 mps 759 mmHg 85%
    02:00 +26°C° 0 mm 4 mps 759 mmHg 86%
    03:00 +26°C° 0 mm 4 mps 759 mmHg 88%
    04:00 +25°C° 0 mm 4 mps 758 mmHg 90%
    05:00 +26°C° 0 mm 3 mps 759 mmHg 87%
    06:00 +26°C° 0 mm 3 mps 760 mmHg 85%
    07:00 +26°C° 0 mm 2 mps 760 mmHg 83%
    08:00 +29°C° 0 mm 2 mps 760 mmHg 72%
    09:00 +31°C° 0 mm 1 mps 760 mmHg 62%
    10:00 +33°C° 0 mm 1 mps 760 mmHg 52%
    11:00 +34°C° 0 mm 1 mps 760 mmHg 50%
    12:00 +36°C° 0 mm 2 mps 759 mmHg 48%
    13:00 +36°C° 0 mm 2 mps 758 mmHg 46%
    14:00 +36°C° 0 mm 2 mps 757 mmHg 48%
    15:00 +35°C° 0 mm 2 mps 757 mmHg 49%
    16:00 +35°C° 0 mm 2 mps 756 mmHg 51%
    17:00 +33°C° 0 mm 3 mps 757 mmHg 56%
    18:00 +30°C° 0 mm 4 mps 758 mmHg 62%
    19:00 +29°C° 0 mm 5 mps 758 mmHg 68%
    20:00 +29°C° 0 mm 5 mps 759 mmHg 68%
    21:00 +28°C° 0 mm 5 mps 759 mmHg 69%
    22:00 +28°C° 0 mm 4 mps 759 mmHg 69%
    23:00 +27°C° 0 mm 4 mps 759 mmHg 72%

    28 January, Tuesday

    Time Temperature Precipitation Wind Pressure Humidity
    00:00 +27°C° 0 mm 4 mps 759 mmHg 74%
    01:00 +26°C° 0 mm 3 mps 758 mmHg 76%
    02:00 +26°C° 0 mm 3 mps 758 mmHg 79%
    03:00 +26°C° 0 mm 3 mps 758 mmHg 82%
    04:00 +25°C° 0 mm 3 mps 758 mmHg 84%
    05:00 +26°C° 0 mm 3 mps 758 mmHg 82%
    06:00 +26°C° 0 mm 3 mps 759 mmHg 80%
    07:00 +26°C° 0 mm 3 mps 760 mmHg 77%
    08:00 +29°C° 0 mm 3 mps 760 mmHg 67%
    09:00 +32°C° 0 mm 2 mps 760 mmHg 58%
    10:00 +36°C° 0 mm 2 mps 760 mmHg 48%
    11:00 +36°C° 0 mm 2 mps 759 mmHg 46%
    12:00 +37°C° 0 mm 2 mps 758 mmHg 44%
    13:00 +38°C° 0 mm 2 mps 757 mmHg 42%
    14:00 +37°C° 0 mm 3 mps 757 mmHg 43%
    15:00 +36°C° 0 mm 3 mps 756 mmHg 44%
    16:00 +35°C° 0 mm 4 mps 756 mmHg 45%
    17:00 +34°C° 0 mm 4 mps 756 mmHg 50%
    18:00 +32°C° 0 mm 5 mps 757 mmHg 55%
    19:00 +29°C° 0 mm 5 mps 757 mmHg 60%
    20:00 +29°C° 0 mm 5 mps 758 mmHg 64%
    21:00 +28°C° 0 mm 5 mps 758 mmHg 68%
    22:00 +28°C° 0 mm 5 mps 758 mmHg 73%
    23:00 +27°C° 0 mm 5 mps 758 mmHg 77%

    29 January, Wednesday

    Time Temperature Precipitation Wind Pressure Humidity
    00:00 +27°C° 0 mm 4 mps 758 mmHg 81%
    01:00 +26°C° 0 mm 4 mps 758 mmHg 85%
    02:00 +26°C° 0 mm 4 mps 758 mmHg 86%
    03:00 +26°C° 0 mm 3 mps 758 mmHg 88%
    04:00 +25°C° 0 mm 3 mps 757 mmHg 89%
    05:00 +26°C° 0 mm 3 mps 758 mmHg 86%
    06:00 +26°C° 0 mm 2 mps 759 mmHg 82%
    07:00 +27°C° 0 mm 2 mps 759 mmHg 79%
    08:00 +29°C° 0 mm 2 mps 759 mmHg 70%
    09:00 +31°C° 0 mm 1 mps 759 mmHg 61%
    10:00 +34°C° 0 mm 1 mps 759 mmHg 51%
    11:00 +34°C° 0 mm 1 mps 759 mmHg 48%
    12:00 +36°C° 0 mm 2 mps 758 mmHg 45%
    13:00 +37°C° 0 mm 2 mps 757 mmHg 42%
    14:00 +37°C° 0 mm 3 mps 757 mmHg 44%
    15:00 +36°C° 0 mm 3 mps 756 mmHg 45%
    16:00 +35°C° 0 mm 4 mps 756 mmHg 47%
    17:00 +34°C° 0 mm 4 mps 756 mmHg 54%
    18:00 +32°C° 0 mm 5 mps 757 mmHg 61%
    19:00 +29°C° 0 mm 6 mps 757 mmHg 69%
    20:00 +29°C° 0 mm 5 mps 758 mmHg 70%
    21:00 +28°C° 0 mm 5 mps 758 mmHg 72%
    22:00 +28°C° 0 mm 5 mps 759 mmHg 73%
    23:00 +28°C° 0 mm 5 mps 758 mmHg 77%

    30 January, Thursday

    Time Temperature Precipitation Wind Pressure Humidity
    00:00 +27°C° 0 mm 5 mps 758 mmHg 80%
    01:00 +26°C° 0 mm 5 mps 758 mmHg 84%
    02:00 +26°C° 0 mm 4 mps 758 mmHg 85%
    03:00 +26°C° 0 mm 4 mps 758 mmHg 86%
    04:00 +26°C° 0 mm 4 mps 758 mmHg 88%
    05:00 +26°C° 0 mm 3 mps 758 mmHg 85%
    06:00 +26°C° 0 mm 3 mps 759 mmHg 83%
    07:00 +27°C° 0 mm 3 mps 759 mmHg 80%
    08:00 +29°C° 0 mm 2 mps 759 mmHg 70%
    09:00 +32°C° 0 mm 2 mps 759 mmHg 60%
    10:00 +34°C° 0 mm 1 mps 759 mmHg 49%
    11:00 +35°C° 0 mm 1 mps 759 mmHg 49%
    12:00 +36°C° 0 mm 2 mps 758 mmHg 49%
    13:00 +36°C° 0 mm 2 mps 757 mmHg 48%
    14:00 +36°C° 0 mm 3 mps 757 mmHg 48%
    15:00 +36°C° 0 mm 3 mps 756 mmHg 48%
    16:00 +36°C° 0 mm 4 mps 756 mmHg 48%
    17:00 +34°C° 0 mm 4 mps 756 mmHg 54%
    18:00 +33°C° 0 mm 5 mps 756 mmHg 60%
    19:00 +30°C° 0 mm 5 mps 757 mmHg 65%
    20:00 +29°C° 0 mm 5 mps 757 mmHg 69%
    21:00 +29°C° 0 mm 5 mps 758 mmHg 74%
    22:00 +28°C° 0 mm 4 mps 758 mmHg 78%
    23:00 +28°C° 0 mm 4 mps 758 mmHg 78%
    Show more